Tracking 31027 objects as of 19-Jul-2025
HD Live streaming from Space Station
objects crossing your sky now

CHUANG XIN 1 (CZ-1)

Track CHUANG XIN 1 (CZ-1) now!
10-day predictions
CHUANG XIN 1 (CZ-1) is classified as:


NORAD ID: 28058
Int'l Code: 2003-049B
Perigee: 728.6 km
Apogee: 748.0 km
Inclination: 98.5 °
Period: 99.4 minutes
Semi major axis: 7109 km
RCS: 0.5789 m2 (medium)
Launch date: October 21, 2003
Source: People's Republic of China (PRC)
Launch site: Taiyaun Space Center, China (TSC)

Prototype of advanced telecommunications satellite for LEO.
Your satellite tracking list
GALASSIA
Track 1 satellite(s)




NASA's NSSDC Master Catalog

Two Line Element Set (TLE):
1 28058U 03049B   25199.45485818  .00000140  00000-0  49554-4 0  9994
2 28058  98.5414  90.5398 0013637 113.0685 247.1947 14.48323699147964
Source of the keplerian elements: AFSPC